Location: Kielce
(50.8833°N, 20.6167°E)
Time: 09:10:32
(UTC+02:00)

S-56A Canister/Altair - All Passes

Search period start: 20 April 2021 00:00
Search period end: 30 April 2021 00:00
Orbit: 632 x 2500 km, 38.9° (Epoch: 19 April)

Date Brightness Start Highest point End Pass type
(mag) Time Alt. Az. Time Alt. Az. Time Alt. Az.
20 Apr - 00:05:19 10° SSW 00:10:12 19° SSE 00:14:08 10° ESE night (unlit)
20 Apr - 02:08:37 10° SW 02:13:09 23° S 02:16:52 10° SE visible
20 Apr - 04:13:29 10° SW 04:15:40 13° SSW 04:17:44 10° S visible
20 Apr - 23:32:20 10° SSW 23:37:36 20° SSE 23:41:47 10° ESE night (unlit)
21 Apr - 01:35:38 10° SW 01:40:39 24° S 01:44:39 10° SE night (unlit)
21 Apr - 03:40:22 10° WSW 03:43:14 15° SSW 03:45:51 10° SSE visible
21 Apr - 22:59:20 10° SSW 23:04:59 20° SSE 23:09:25 10° ESE visible
22 Apr - 01:02:34 10° SW 01:08:08 26° S 01:12:25 10° SE night (unlit)
22 Apr - 03:07:16 10° WSW 03:10:48 17° SSW 03:13:53 10° SSE visible
22 Apr - 22:26:17 10° SSW 22:32:18 20° SSE 22:37:01 10° ESE visible
23 Apr - 00:29:26 10° SW 00:35:35 27° S 00:40:11 10° ESE night (unlit)
23 Apr - 02:34:09 10° WSW 02:38:21 20° SSW 02:41:52 10° SSE visible
23 Apr - 21:53:14 10° SSW 21:59:36 20° SSE 22:04:35 10° ESE visible
23 Apr - 23:56:15 10° SW 00:02:59 28° S 00:07:56 10° ESE visible
24 Apr - 02:00:59 10° WSW 02:05:53 22° SSW 02:09:48 10° SE night (unlit)
24 Apr - 21:20:12 10° SSW 21:26:50 19° SSE 21:32:04 10° ESE visible
24 Apr - 23:22:59 10° SW 23:30:20 29° S 23:35:40 10° ESE visible
25 Apr - 01:27:47 10° WSW 01:33:23 25° SSW 01:37:42 10° SE night (unlit)
25 Apr - 20:47:12 10° SSW 20:54:02 19° SSE 20:59:30 10° ESE visible
25 Apr - 22:49:42 10° SW 22:57:39 30° S 23:03:22 10° ESE visible
26 Apr - 00:54:31 10° WSW 01:00:51 28° SSW 01:05:35 10° SE visible
26 Apr - 03:00:54 10° WSW 03:03:14 12° SSW 03:05:21 10° S night (unlit)
26 Apr - 20:14:14 10° S 20:21:11 18° SSE 20:26:50 10° ESE visible
26 Apr - 22:16:23 10° SW 22:24:55 30° S 22:31:02 10° ESE visible
27 Apr - 00:21:11 10° WSW 00:28:17 31° S 00:33:26 10° SE visible
27 Apr - 02:27:13 10° WSW 02:30:48 15° SSW 02:33:52 10° S night (unlit)
27 Apr - 19:41:19 10° S 19:48:19 18° SSE 19:54:05 10° ESE daylight
27 Apr - 21:43:02 10° SW 21:52:07 31° SSE 21:58:40 10° ESE visible
27 Apr - 23:47:47 10° WSW 23:55:39 33° S 00:01:13 10° SE visible
28 Apr - 01:53:42 10° WSW 01:58:21 19° SSW 02:02:07 10° SSE visible
28 Apr - 19:08:32 10° S 19:15:24 17° SSE 19:21:11 10° ESE daylight
28 Apr - 21:09:40 10° SW 21:19:16 31° SSE 21:26:14 10° ESE visible
28 Apr - 23:14:21 10° WSW 23:22:58 35° S 23:29:00 10° ESE visible
29 Apr - 01:20:13 10° WSW 01:25:52 22° SSW 01:30:15 10° SSE visible
29 Apr - 18:35:52 10° S 18:42:28 16° SE 18:48:09 10° ESE daylight
29 Apr - 20:36:20 10° SW 20:46:22 31° SSE 20:53:45 10° ESE visible
29 Apr - 22:40:53 10° WSW 22:50:14 37° S 22:56:43 10° ESE visible
